Aérodrome :
LOGIN :

S'inscrire | Disclaimer

   EN    FR    IT 

 










Légende :    VFR   VFR Marginal   IFR   IFR Intensif   IFR Très Intensif
Visi : 
Plafond : 
>= 8 km
>= 3000ft
5 à 8 km
1000 à 3000 ft
1500m à 5 km
500 à 1000 ft
800 à 1500m
200 à 500 ft
< 800m
< 200 ft
Symboles :   Orages  Brouillard  Fortes neiges  Fortes précipitations  Vent > 20 kt
SIGMETs :   Divers  Orages  Givrage  Turbulence  Onde Orograph.  Cendres Volcan.






- Altitude de l'aérodrome : 386 ft
- Code IATA : QOE


ETNN - Nörvenich Airforce Base

DERNIER METAR :
  • 271120Z 11005KT 0600 FG VV000 03/03 Q1019 RED

METARs EXPIRÉS :
  • 271101Z 11005KT 0400 FG VV000 03/03 Q1019 RED FCST CNL
  • 271020Z 10004KT 0300 R25/0700D FG VV000 02/02 Q1020 RED RED
  • 270925Z 10005KT 0300 R25/0750N FG VV000 01/01 Q1020 RED RED

TAF AMD TAF ETNN
Valide du 27 à 09h jusqu'au 27 à 18h UTC


270925Z 2709/2718 12003KT 0500 FG BKN001
BECMG 2711/2712 11005KT 2000 BR BKN003
BECMG 2712/2714 11005KT 5000 BR SCT004 SCT035 BY ETGL



MET'MAP, la Météo Aéronautique d'un coup d'oeil ! - Copyright ORBIFLY Décembre 2007 - Disclaimer

ORBIFLY MET'MAP TEAM :

Programmation & Développement : Alexandra Zaïnal
Sur une idée originale de : Baudouin d'Aumeries
Assistance à la programmation : Marc-Olivier Méhu
Soutien technique & logistique : Manuel Goepfert

Contact : metmap@orbifly.com




SOURCES & CREDITS :

   NOAA